Location: Saint Louis
(38.6272°N, 90.1978°W)
Time: 22:29:46
(UTC-05:00)

ISS - Pass Details

Date: 26 December 2012
Orbit: 401 x 404 km, 51.6° (Epoch: 30 July)

Event Time Altitude Azimuth Distance (km) Brightness Sun altitude
Rises 19:07:50 0° 313° (NW) 2,386 1.1 -26.8°
Reaches altitude 10° 19:10:00 10° 319° (NW) 1,516 -0.1 -27.2°
Enters shadow 19:10:02 10° 320° (NW) 1,504 -0.1 -27.2°
